Tracking 27420 objects as of 28-May-2023
HD Live streaming from Space Station
objects crossing your sky now

CZ-4 DEB

Track CZ-4 DEB now!
10-day predictions


NORAD ID: 23258
Int'l Code: 1990-081CP
Perigee: 823.1 km
Apogee: 856.2 km
Inclination: 98.6 °
Period: 101.6 minutes
Semi major axis: 7210 km
RCS: 0.0136 m2 (small)
Launch date: September 3, 1990
Source: People's Republic of China (PRC)
Launch site: Taiyaun Space Center, China (TSC)

Note: This is SATELLITE DEBRIS
Your satellite tracking list
Your tracking list is empty




NASA's NSSDC Master Catalog

Two Line Element Set (TLE):
1 23258U 90081CP  23147.70769095  .00000542  00000-0  28531-3 0  9991
2 23258  98.6203 145.0874 0022974  28.1201 332.1210 14.17892265601270
Source of the keplerian elements: AFSPC